Regional Weather Roundup
Issued by NWS

Home | Current Version | Previous Version | Graphics & Text | Print | Product List | Glossary On
Versions: 1 2 3 4 5 6 7 8 9 10 11 12 13 14 15 16 17 18 19 20 21 22 23 24 25 26 27 28 29 30 31 32 33 34 35 36 37 38 39 40 41 42 43 44 45 46 47 48 49 50
000
ASUS43 KLOT 280003
RWRIL

ILLINOIS REGIONAL WEATHER ROUNDUP
NATIONAL WEATHER SERVICE CHICAGO/ROMEOVILLE IL
700 PM CDT SAT AUG 27 2016

NOTE: "FAIR" INDICATES FEW OR NO CLOUDS BELOW 12,000 FEET WITH NO
SIGNIFICANT WEATHER AND/OR OBSTRUCTIONS TO VISIBILITY.

* THESE STATIONS ARE NOT UNDER NWS QUALITY CONTROL. THEY ALSO MAY NOT
  REPORT WEATHER SUCH AS PRECIPITATION OR FOG.

ILZ001-002-007-009-015-016-024-280100-
NORTHWEST ILLINOIS

CITY           SKY/WX    TMP DP  RH WIND       PRES   REMARKS
MOLINE         CLEAR     82  71  69 CALM      30.00S HX  86
6HR MIN TEMP:  81; 6HR MAX TEMP:  85;

STERLING*      CLOUDY    80  73  79 W5        30.02R HX  84
SAVANNA*       MOCLDY    80  69  69 NW5       30.02R HX  82
$$

ILZ003-004-008-010-011-017-018-280100-
NORTH CENTRAL ILLINOIS

CITY           SKY/WX    TMP DP  RH WIND       PRES   REMARKS
ROCKFORD       MOCLDY    80  69  69 W5        30.03R HX  83
6HR MIN TEMP:  79; 6HR MAX TEMP:  84;

FREEPORT*      CLEAR     76  68  74 SW5       30.04S
ROCHELLE*      CLOUDY    77  73  88 CALM      30.03R
$$

ILZ005-006-012>014-019>023-280100-
NORTHEAST ILLINOIS

CITY           SKY/WX    TMP DP  RH WIND       PRES   REMARKS
CHICAGO-OHARE  MOCLDY    80  70  71 SW8       30.02R HX  83
6HR MIN TEMP:  77; 6HR MAX TEMP:  84;

CHICAGO-MIDWAY MOCLDY    83  70  64 SW7       30.02R HX  87
6HR MIN TEMP:  80; 6HR MAX TEMP:  86;

AURORA         CLOUDY    80  72  76 S7        30.03R HX  84
6HR MIN TEMP:  79; 6HR MAX TEMP:  84;

LANSING*       PTCLDY    80  74  81 SW7       30.04R HX  85
JOLIET*        PTCLDY    82  74  75 CALM      30.03R HX  88
WAUKEGAN       MOCLDY    79  71  76 SW7       30.01R HX  82
6HR MIN TEMP:  75; 6HR MAX TEMP:  81;

DUPAGE AIRPORT CLOUDY    79  70  74 S8        30.02R HX  82
6HR MIN TEMP:  77; 6HR MAX TEMP:  84;

KANKAKEE*      CLEAR     80  74  83 CALM      30.04S HX  84
WHEELING       CLOUDY    81  70  69 SW9       30.03R HX  84
6HR MIN TEMP:  76; 6HR MAX TEMP:  84;

MORRIS*        MOCLDY    79  74  83 CALM      30.02S HX  83
ROMEOVILLE*    MOCLDY    79  74  84 SW5       30.04R HX  82
NORTHERLY ISL    N/A     83  67  58 SW3         N/A  HX  85
$$

LMZ740>746-280100-
SOUTHERN LAKE MICHIGAN

STATION/POSITION SKY/WX   TEMP    WIND        PRES    VSBY  WAVE
                          AIR SEA DIR/SP/G                  HT/PER
                          (F)     (DEG/KT/KT) (MB)    (MI)  (FT/S)
SOUTHERN BUOY              76 75  150/ 10/ 12 1015.7          2/ 4
WILMETTE HARBOR            73 70  140/  2/  6   N/A           2/ 4
HARRISON CRIB              84     220/ 14/ 15   N/A
BURNHAM HARBOR             83     210/  7/ 10   N/A
CALUMET HARBOR             83     200/ 11/ 17 1015.8R
BURNS HARBOR               83     220/ 11/ 13 1016.6S
MICHIGAN CITY              82     160/  9/ 11   N/A
MICHIGAN CITY 6N           81 76  200/  6/  8   N/A           1/ 3
ST. JOSEPH                 79 77  130/  2/  2 1016.2F         1
$$

ILZ025>027-034>036-040-047-049-050-058-095>099-280100-
WEST-CENTRAL ILLINOIS

CITY           SKY/WX    TMP DP  RH WIND       PRES   REMARKS
QUINCY           N/A     85  75  72 MISG      30.02R HX  93
GALESBURG*     CLOUDY    81  73  77 S5        30.02S HX  85
MACOMB*        PTCLDY    81  76  83 S3        30.03F HX  87
JACKSONVILLE*  CLOUDY    81  71  72 S3        30.02S HX  85
PITTSFIELD*    MOCLDY    83  76  77 S3        30.04R HX  91
$$

ILZ028>032-037-038-041>044-048-051>054-059>061-280100-
CENTRAL ILLINOIS

CITY           SKY/WX    TMP DP  RH WIND       PRES   REMARKS
PONTIAC        PTCLDY    81  76  85 CALM      30.04R HX  87
BLOOMINGTON    PTCLDY    79  73  82 S6        30.05S HX  82
DECATUR        CLOUDY    78  69  73 SE6       30.06R THUNDER HX  80
PEORIA         CLOUDY    83  76  79 CALM      30.02S HX  91
6HR MIN TEMP:  80; 6HR MAX TEMP:  85;

LACON*         PTCLDY    81  74  79 CALM      30.01S HX  86
LINCOLN*       PTCLDY    83  74  75 CALM      30.03R HX  90
SPRINGFIELD    MOCLDY    83  75  77 CALM      30.03S HX  90
6HR MIN TEMP:  83; 6HR MAX TEMP:  91; 6HR PCP: TRACE;

TAYLORVILLE    CLEAR     79  74  84 S5        30.05R HX  82
6HR MIN TEMP:  79; 6HR MAX TEMP:  87;

$$

ILZ033-039-045-046-055>057-062-063-280100-
EAST-CENTRAL ILLINOIS

CITY           SKY/WX    TMP DP  RH WIND       PRES   REMARKS
CHAMPAIGN      PTCLDY    78  73  84 S7        30.07R HX  81
RANTOUL*       MOCLDY    81  77  88 S3        30.07R HX  88
MATTOON        CLEAR     81  72  74 S8        30.06R HX  85
PARIS*         CLEAR     79  75  86 S3        30.08R HX  83
$$

ILZ079-100>102-280100-
SOUTHWEST ILLINOIS

CITY           SKY/WX    TMP DP  RH WIND       PRES   REMARKS
ALTON          TSTM      77  72  83 W18       30.05R
BELLEVILLE     CLEAR     85  73  67 SE7       30.02R HX  91
CAHOKIA*       CLOUDY    83  73  72 S5        30.02R HX  89
SPARTA*        CLEAR     83  74  73 CALM      30.05R HX  90
$$

ILZ064>066-069>071-074>076-080>082-084>086-088>090-092>094-280100-
SOUTH-CENTRAL ILLINOIS

CITY           SKY/WX    TMP DP  RH WIND       PRES   REMARKS
CARBONDALE     CLEAR     84  76  76 CALM      30.03S HX  93
6HR MIN TEMP:  83; 6HR MAX TEMP:  87;

EFFINGHAM*     CLEAR     82  76  84 CALM      30.08R HX  88
MARION         CLEAR     84  77  79 CALM      30.04S HX  94
MT. VERNON     CLEAR     86  72  62 SE3       30.05S HX  92
CENTRALIA*     CLEAR     84  76  77 CALM      30.05R HX  93
SALEM*         CLEAR     84  74  71 SE3       30.06R HX  91
METROPOLIS*    CLEAR     87  76  69 CALM      30.04S HX  97
$$

ILZ067-068-072-073-078-083-087-091-280100-
SOUTHEAST ILLINOIS

CITY           SKY/WX    TMP DP  RH WIND       PRES   REMARKS
LAWRENCEVILLE  PTCLDY    85  75  72 S5        30.06S HX  93
FLORA*         CLEAR     85  77  78 CALM      30.05S HX  95
FAIRFIELD*     CLEAR     82  76  79 CALM      30.04S HX  90
HARRISBURG*    CLEAR     86  76  71 CALM      30.04S HX  96
ROBINSON*      CLEAR     81  76  85 CALM      30.07S HX  86
CARMI*         PTCLDY    85  78  80 CALM      30.04S HX  96
$$

ABBREVIATIONS USED IN REMARKS
   TC - TEMPERATURE IN CELSIUS
  WCI - WIND CHILL INDEX
   HX - HEAT INDEX
  VSB - VISIBILITY
$$




USA.gov is the U.S. government's official web portal to all federal, state and local government web resources and services.